Location: Peebles
(55.6412°N, 3.1714°W)
Time: 15:02:31
(UTC+01:00)

Lacrosse 4 Rocket - Pass Details

Date: 26 September 2021
Orbit: 540 x 616 km, 68.0° (Epoch: 17 October)

Event Time Altitude Azimuth Distance (km) Brightness Sun altitude
Rises 22:55:44 0° 309° (NW) 2,729 6.0 -30.1°
Reaches altitude 10° 22:58:38 10° 331° (NNW) 1,845 4.9 -30.3°
Maximum altitude 23:01:18 16° 12° (NNE) 1,487 3.9 -30.6°
Enters shadow 23:01:31 16° 16° (NNE) 1,490 3.9 -30.6°
